Simultaneous Nadir Overpasses (SNOs) Predictions

Prediction of SNOs between LANDSAT-8 and NPP Satellite Orbit:

Table of predicted SNOs for the next 14.0 days since TLE Epoch: 8/13/2022
Index Date (LANDSAT-8) Time (LANDSAT-8) Lat,Lon (LANDSAT-8) SZA (LANDSAT-8 ) Date (NPP) Time (NPP) Lat,Lon (NPP) SZA (NPP ) Distance(km) Time Diff (sec)
1 08/13/2022 14:42:26 -70.13, 136.01 124.45 08/13/2022 14:41:34 -70.13, 135.95 124.44 2.10 52
2 08/13/2022 15:31:54 69.98, -56.57 55.42 08/13/2022 15:32:18 70.01, -56.55 55.44 2.88 24
3 08/13/2022 16:21:38 -69.10, 109.87 125.42 08/13/2022 16:22:44 -69.07, 112.12 125.52 89.32 66
4 08/16/2022 06:09:11 71.06, 85.63 57.26 08/16/2022 06:08:05 71.05, 82.90 57.35 98.59 66
5 08/16/2022 06:58:57 -70.07,-108.21 123.68 08/16/2022 06:58:30 -70.07,-108.20 123.68 0.64 27
6 08/16/2022 07:48:24 69.97, 59.29 56.23 08/16/2022 07:49:14 69.95, 59.29 56.21 1.37 50
7 08/18/2022 22:25:57 70.15,-159.84 57.25 08/18/2022 22:24:45 70.17,-159.89 57.27 2.35 72
8 08/18/2022 23:15:27 -70.05, 7.64 122.85 08/18/2022 23:15:26 -70.02, 7.65 122.88 2.92 1
9 08/19/2022 00:04:56 69.83, 174.98 56.96 08/19/2022 00:06:08 69.80, 175.29 56.91 12.37 72
10 08/21/2022 14:42:26 70.12, -44.01 58.09 08/21/2022 14:41:40 70.12, -44.06 58.10 1.83 46
11 08/21/2022 15:31:56 -70.01, 123.47 122.01 08/21/2022 15:32:22 -70.02, 123.41 121.99 2.88 26
12 08/24/2022 06:09:15 -70.95, -94.54 120.23 08/24/2022 06:08:08 -71.02, -97.06 120.07 91.76 67
13 08/24/2022 06:58:56 70.07, 71.80 58.94 08/24/2022 06:58:36 70.08, 71.77 58.96 1.60 20
14 08/24/2022 07:48:26 -69.97,-120.71 121.15 08/24/2022 07:49:18 -69.98,-120.76 121.14 2.46 52
15 08/26/2022 22:25:59 -70.13, 20.12 120.10 08/26/2022 22:24:48 -70.15, 20.12 120.07 2.06 71
16 08/26/2022 23:15:26 70.01,-172.39 59.81 08/26/2022 23:15:32 70.04,-172.41 59.84 3.21 6
17 08/27/2022 00:04:59 -69.75, -5.13 120.44 08/27/2022 00:06:11 -69.78, -4.70 120.42 16.98 72



Historial Predications of SNOs between LANDSAT-8 and NPP
